SAUDICOMSAT 3

Last updated on Fri Jun 19 2026 17:09:51 GMT+0000 (Coordinated Universal Time)

1 31125U 07012J 26170.15615589 .00000676 00000+0 11831-3 0 9993 2 31125 98.3144 145.6229 0040144 47.1968 313.2602 14.70708674 25110
UTC large
Height (km)
Speed (km/s)
/
Latitude / Longitude
Inclination (degrees)
Orbital Period (minutes)
Azimuth
Elevation
Range (km)
Doppler Factor

Next 0 passes for location: London (51.5072 / 0.1276)

Sorry there are no passes over London.
SAUDICOMSAT 3